Location: Bougoura
(13.1861°N, 5.0773°W)
Time: 00:18:56
(UTC+00:00)

SJ-11-01 - Pass Details

Date: 18 September 2020
Orbit: 684 x 701 km, 98.0° (Epoch: 21 October)

Event Time Altitude Azimuth Distance (km) Brightness Sun altitude
Exits shadow 19:35:34 16° 157° (SSE) 1,803 6.1 -19.4°
Maximum altitude 19:39:21 66° 78° (ENE) 760 4.2 -20.3°
Drops below altitude 10° 19:44:01 10° 356° (N) 2,149 6.9 -21.5°
Sets 19:46:17 0° 353° (N) 3,064 7.8 -22.0°
